Weather History for Andalusia, AL

Change the Weather History Date:

Tuesday, August 21, 2012

  Actual Average (KCEW) Record (KCEW)
Temperature  
Mean Temperature 82 °F -  
Max Temperature 90 °F 92 °F 101 °F (1983)
Min Temperature 73 °F 71 °F 61 °F (1991)
Cooling Degree Days 16    
Growing Degree Days 32 (Base 50)    
Moisture  
Dew Point 69 °F    
Average Humidity 79    
Maximum Humidity 88    
Minimum Humidity 48    
Precipitation  
Precipitation 0.01 in - - ()
Sea Level Pressure  
Sea Level Pressure 29.97 in    
Wind  
Wind Speed 3 mph (ESE)    
Max Wind Speed 7 mph    
Max Gust Speed -    
Visibility 7 miles    
Events Fog , Rain    
Averages and records for this station are not official NWS values.
T = Trace of Precipitation, MM = Missing Value Source: NWS Daily Summary

Daily Weather History Graph

Daily Weather History Graph

Search for Another Location

Airport:

Trip Planner

Search our weather history database for the weather conditions in past years. The results will help you decide how hot, cold, wet, or windy it might be!

Date:

Astronomy

Aug. 21, 2012 Rise Set
Actual Time 6:15 AM CDT 7:21 PM CDT
Civil Twilight 5:49 AM CDT 7:46 PM CDT
Nautical Twilight 5:20 AM CDT 8:16 PM CDT
Astronomical Twilight 4:49 AM CDT 8:47 PM CDT
Moon 10:22 AM CDT (8/21) 9:45 PM CDT (8/21)
Length of Visible Light 13h 56m
Length of Day
13h 06m
Waxing Crescent, 19% of the Moon is Illuminated
Aug 21
Waxing Crescent
Aug 24
First Quarter
Aug 31
Full
Sep 8
Last Quarter
Sep 15
New

Hourly Weather History & Observations

Time (CDT) Temp. Heat Index Dew Point Humidity Pressure Visibility Wind Dir Wind Speed Gust Speed Precip Events Conditions
12:29 AM 73.4 °F - 69.8 °F 88% 29.93 in 8.0 mi East 4.6 mph - N/A   Scattered Clouds
12:38 AM 73.4 °F - 69.8 °F 88% 29.93 in 8.0 mi Calm Calm - N/A   Mostly Cloudy
12:56 AM 73.0 °F - 69.1 °F 87% 29.93 in 9.0 mi Calm Calm - N/A   Mostly Cloudy
1:12 AM 73.4 °F - 69.8 °F 88% 29.94 in 7.0 mi Calm Calm - N/A   Scattered Clouds
1:47 AM 73.4 °F - 69.8 °F 88% 29.95 in 0.8 mi SSE 3.5 mph - N/A   Mist
1:56 AM 73.0 °F - 69.1 °F 87% 29.93 in 0.2 mi SSE 4.6 mph - N/A Fog Fog
2:36 AM 73.4 °F - 69.8 °F 88% 29.94 in 0.5 mi SSE 4.6 mph - N/A Fog Fog
3:02 AM 73.4 °F - 69.8 °F 88% 29.94 in 1.2 mi SE 5.8 mph - N/A   Overcast
3:12 AM 73.4 °F - 69.8 °F 88% 29.94 in 2.0 mi SE 5.8 mph - N/A   Overcast
3:21 AM 73.4 °F - 69.8 °F 88% 29.94 in 5.0 mi Calm Calm - N/A   Overcast
3:56 AM 73.0 °F - 69.1 °F 87% 29.93 in 6.0 mi SE 3.5 mph - N/A   Overcast
4:56 AM 73.0 °F - 69.1 °F 87% 29.95 in 5.0 mi ESE 3.5 mph - N/A   Overcast
5:56 AM 73.9 °F - 70.0 °F 87% 29.97 in 4.0 mi Calm Calm - N/A   Overcast
6:35 AM 73.4 °F - 69.8 °F 88% 29.99 in 3.0 mi Calm Calm - N/A   Overcast
6:56 AM 73.9 °F - 70.0 °F 87% 29.98 in 4.0 mi Calm Calm - N/A   Overcast
7:09 AM 75.2 °F - 69.8 °F 83% 29.99 in 5.0 mi ESE 3.5 mph - N/A   Haze
7:19 AM 75.2 °F - 69.8 °F 83% 29.99 in 5.0 mi East 3.5 mph - N/A   Haze
7:34 AM 75.2 °F - 69.8 °F 83% 29.99 in 5.0 mi East 3.5 mph - N/A   Haze
7:45 AM 75.2 °F - 69.8 °F 83% 29.99 in 5.0 mi East 3.5 mph - N/A   Haze
7:56 AM 75.0 °F - 70.0 °F 84% 29.99 in 5.0 mi ENE 3.5 mph - N/A   Haze
8:26 AM 75.2 °F - 69.8 °F 83% 30.00 in 7.0 mi East 4.6 mph - N/A   Overcast
8:36 AM 77.0 °F - 69.8 °F 78% 29.99 in 9.0 mi East 5.8 mph - N/A   Overcast
8:56 AM 78.1 °F - 70.0 °F 76% 29.97 in 10.0 mi ENE 5.8 mph - N/A   Mostly Cloudy
9:56 AM 82.0 °F 85.9 °F 70.0 °F 67% 29.98 in 10.0 mi East 3.5 mph - N/A   Mostly Cloudy
10:13 AM 80.6 °F 83.9 °F 69.8 °F 70% 30.00 in 10.0 mi East 6.9 mph - N/A   Scattered Clouds
10:37 AM 82.4 °F 86.3 °F 69.8 °F 66% 30.01 in 10.0 mi Variable 4.6 mph - N/A   Mostly Cloudy
10:56 AM 82.9 °F 86.5 °F 69.1 °F 63% 29.99 in 10.0 mi Calm Calm - N/A   Overcast
11:05 AM 82.4 °F 85.4 °F 68.0 °F 62% 30.00 in 10.0 mi Calm Calm - N/A   Overcast
11:56 AM 84.0 °F 87.8 °F 69.1 °F 61% 29.99 in 10.0 mi Variable 3.5 mph - N/A   Scattered Clouds
12:56 PM 87.1 °F 92.0 °F 70.0 °F 57% 29.98 in 10.0 mi NNE 5.8 mph - N/A   Mostly Cloudy
1:56 PM 87.1 °F 90.6 °F 68.0 °F 53% 29.96 in 10.0 mi East 4.6 mph - N/A   Mostly Cloudy
2:56 PM 88.0 °F 90.7 °F 66.9 °F 49% 29.96 in 10.0 mi ENE 5.8 mph - N/A   Mostly Cloudy
3:56 PM 90.0 °F 93.6 °F 68.0 °F 48% 29.95 in 10.0 mi Variable 3.5 mph - N/A   Mostly Cloudy
4:56 PM 75.9 °F - 69.1 °F 79% 29.98 in 10.0 mi South 6.9 mph - 0.01 in Rain Light Rain
5:56 PM 77.0 °F - 69.1 °F 76% 29.98 in 10.0 mi Calm Calm - 0.00 in   Scattered Clouds
6:56 PM 77.0 °F - 70.0 °F 79% 29.99 in 10.0 mi Calm Calm - N/A   Mostly Cloudy
7:56 PM 75.9 °F - 70.0 °F 82% 30.00 in 10.0 mi East 4.6 mph - N/A   Scattered Clouds
8:56 PM 73.9 °F - 69.1 °F 85% 30.01 in 10.0 mi East 3.5 mph - N/A   Partly Cloudy
9:56 PM 73.9 °F - 69.1 °F 85% 30.01 in 10.0 mi Calm Calm - N/A   Clear
10:56 PM 73.0 °F - 69.1 °F 87% 30.01 in 10.0 mi Calm Calm - N/A   Clear
11:56 PM 73.0 °F - 68.0 °F 84% 30.01 in 10.0 mi Calm Calm - N/A   Clear